< < Back
Terminal Aerodrome Forecast


Current Version              Previous Versions:   1  2  3  4  5  6  7  8  9  

Terminal Aerodrome Forecast

417
FTUS44 KMOB 300500
TAFPNS
TAF
KPNS 300533Z 3006/3106 34009KT P6SM SCT010 BKN014
     FM301200 01008KT P6SM SKC
     FM301800 36008KT P6SM SKC=



Latest METAR

565
SAUS70 KWBC 310700 RRF
MTRPNS
METAR KPNS 310653Z AUTO 35007KT 10SM CLR 12/04 A3000 RMK AO2 SLP160
T01170044


USA.gov is the U.S. government's official web portal to all federal, state and local government web resources and services.